New Seeker — WDG4598 — position and weather

sailwx.info

Track history (hours):
 
Tides and Currents Weather Stations Pressure Air Temp Water Temp Dewpoint Dewpoint Depression Visibility Wind Speed Wind Dir Waves Ship Positions

New Seeker

Owner: myers, conrad, portland, OR. More information available from US FCC via Universal Licensing System and Coast Guard Vessel Documentation Center.

Last reported at 2013-Oct-06 22:08 UTC. Time now 2014-Nov-01 10:33 UTC.
Position N 47°20' W 122°29'.
Warning: this ship's position is years out of date!

Length 12 m.

Type: Pleasure craft. MMSI: 367538250.

Date/timePositionNaut miles runAvg speedWind from/ knotsBaromVisibWave heightAir tempDewpointWater temp
2013-Oct-06 22:08N 47°20' W 122°29'4 7.3
2013-Oct-06 21:33N 47°22' W 122°24'3 3.0
2013-Oct-06 20:27N 47°24' W 122°20'1 1.3
2013-Oct-06 19:33N 47°25' W 122°21'7 6.9
2013-Oct-06 18:33N 47°31' W 122°25'8 7.0
2013-Oct-06 17:24N 47°39' W 122°27'6 6.5
2013-Oct-06 16:33N 47°45' W 122°27'4 0.8
2013-Oct-06 12:05N 47°48' W 122°30'0 0.0
2013-Oct-06 11:17N 47°48' W 122°30'0 0.0
2013-Oct-06 10:05N 47°48' W 122°30'0 0.0
2013-Oct-06 08:29N 47°48' W 122°30'0 0.0
2013-Oct-06 07:29N 47°48' W 122°30'0 0.0
2013-Oct-06 06:29N 47°48' W 122°30'0 0.0
2013-Oct-06 05:11N 47°48' W 122°30'0 0.0
2013-Oct-06 04:23N 47°48' W 122°30'0 0.0
2013-Oct-05 23:24N 47°48' W 122°30'5 5.7
2013-Oct-05 22:33N 47°52' W 122°30'43 7.1
2013-Oct-05 16:28N 48°26' W 123°10'8 8.2
2013-Oct-05 15:33N 48°32' W 123°17'  
Track history (hours):
 
Tides and Currents Weather Stations Pressure Air Temp Water Temp Dewpoint Dewpoint Depression Visibility Wind Speed Wind Dir Waves Ship Positions

New Seeker

Owner: myers, conrad, portland, OR. More information available from US FCC via Universal Licensing System and Coast Guard Vessel Documentation Center.

Last reported at 2013-Oct-06 22:08 UTC. Time now 2014-Nov-01 10:33 UTC.
Position N 47°20' W 122°29'.
Warning: this ship's position is years out of date!

Length 12 m.

Type: Pleasure craft. MMSI: 367538250.

Date/timePositionNaut miles runAvg speedWind from/ knotsBaromVisibWave heightAir tempDewpointWater temp
2013-Oct-06 22:08N 47°20' W 122°29'4 7.3
2013-Oct-06 21:33N 47°22' W 122°24'3 3.0
2013-Oct-06 20:27N 47°24' W 122°20'1 1.3
2013-Oct-06 19:33N 47°25' W 122°21'7 6.9
2013-Oct-06 18:33N 47°31' W 122°25'8 7.0
2013-Oct-06 17:24N 47°39' W 122°27'6 6.5
2013-Oct-06 16:33N 47°45' W 122°27'4 0.8
2013-Oct-06 12:05N 47°48' W 122°30'0 0.0
2013-Oct-06 11:17N 47°48' W 122°30'0 0.0
2013-Oct-06 10:05N 47°48' W 122°30'0 0.0
2013-Oct-06 08:29N 47°48' W 122°30'0 0.0
2013-Oct-06 07:29N 47°48' W 122°30'0 0.0
2013-Oct-06 06:29N 47°48' W 122°30'0 0.0
2013-Oct-06 05:11N 47°48' W 122°30'0 0.0
2013-Oct-06 04:23N 47°48' W 122°30'0 0.0
2013-Oct-05 23:24N 47°48' W 122°30'5 5.7
2013-Oct-05 22:33N 47°52' W 122°30'43 7.1
2013-Oct-05 16:28N 48°26' W 123°10'8 8.2
2013-Oct-05 15:33N 48°32' W 123°17'  

Dump ship's entire track history